TimeEST,TemperatureF,Dew PointF,Humidity,Sea Level PressureIn,VisibilityMPH,Wind Direction,Wind SpeedMPH,Gust SpeedMPH,PrecipitationIn,Events,Conditions,WindDirDegrees,DateUTC
12:53 AM,24.1,15.1,69,30.17,10.0,NNE,6.9,-,N/A,,Overcast,20,2013-03-02 05:53:00
1:53 AM,24.1,14.0,65,30.18,10.0,NNE,5.8,-,N/A,,Overcast,30,2013-03-02 06:53:00
2:53 AM,21.9,12.0,66,30.17,10.0,NNE,5.8,-,N/A,,Clear,30,2013-03-02 07:53:00
3:53 AM,21.0,12.0,68,30.17,10.0,North,3.5,-,N/A,,Clear,10,2013-03-02 08:53:00
4:53 AM,21.0,12.0,68,30.17,10.0,North,4.6,-,N/A,,Clear,360,2013-03-02 09:53:00
5:53 AM,19.9,12.9,74,30.17,10.0,North,5.8,-,N/A,,Mostly Cloudy,360,2013-03-02 10:53:00
7:53 AM,19.9,10.9,68,30.18,10.0,North,3.5,-,N/A,,Clear,360,2013-03-02 12:53:00
8:53 AM,21.0,10.9,65,30.19,10.0,NNE,9.2,-,N/A,,Clear,20,2013-03-02 13:53:00
9:53 AM,23.0,12.0,63,30.19,10.0,North,9.2,-,N/A,,Clear,10,2013-03-02 14:53:00
10:53 AM,25.0,12.0,58,30.18,10.0,NNE,8.1,-,N/A,,Clear,30,2013-03-02 15:53:00
11:53 AM,26.1,12.9,58,30.17,10.0,Variable,4.6,-,N/A,,Clear,0,2013-03-02 16:53:00
12:53 PM,28.0,14.0,56,30.16,10.0,NNE,9.2,-,N/A,,Clear,30,2013-03-02 17:53:00
1:53 PM,28.0,14.0,56,30.14,10.0,ENE,8.1,-,N/A,,Clear,60,2013-03-02 18:53:00
2:53 PM,30.0,14.0,51,30.13,10.0,NE,5.8,-,N/A,,Clear,40,2013-03-02 19:53:00
3:53 PM,30.0,15.1,54,30.13,10.0,Variable,4.6,-,N/A,,Mostly Cloudy,0,2013-03-02 20:53:00
4:28 PM,28.4,15.8,59,30.09,10.0,Calm,Calm,-,N/A,,Overcast,0,2013-03-02 21:28:00
4:53 PM,28.9,15.1,56,30.12,10.0,Calm,Calm,-,N/A,,Overcast,0,2013-03-02 21:53:00
5:53 PM,28.0,17.1,63,30.13,10.0,SE,3.5,-,N/A,,Overcast,130,2013-03-02 22:53:00
6:53 PM,28.9,17.1,61,30.13,10.0,Calm,Calm,-,N/A,,Overcast,0,2013-03-02 23:53:00
7:18 PM,28.4,19.4,69,30.09,10.0,NW,6.9,-,N/A,,Scattered Clouds,320,2013-03-03 00:18:00
8:53 PM,27.0,16.0,63,30.14,10.0,NNW,6.9,17.3,N/A,,Partly Cloudy,340,2013-03-03 01:53:00
9:53 PM,26.1,15.1,63,30.15,10.0,North,6.9,-,N/A,,Overcast,350,2013-03-03 02:53:00
10:53 PM,25.0,14.0,63,30.14,10.0,NNW,5.8,-,N/A,,Overcast,340,2013-03-03 03:53:00
11:53 PM,23.0,14.0,68,30.14,10.0,Calm,Calm,-,N/A,,Clear,0,2013-03-03 04:53:00